TimeEST,TemperatureF,Dew PointF,Humidity,Sea Level PressureIn,VisibilityMPH,Wind Direction,Wind SpeedMPH,Gust SpeedMPH,PrecipitationIn,Events,Conditions,WindDirDegrees,DateUTC
12:54 AM,33.1,23.0,66,29.70,10.0,Calm,Calm,-,N/A,,Overcast,0,2013-01-01 05:54:00
1:23 AM,33.8,23.0,65,29.68,10.0,Variable,4.6,-,N/A,,Overcast,0,2013-01-01 06:23:00
1:54 AM,33.1,23.0,66,29.70,10.0,West,4.6,-,N/A,,Overcast,280,2013-01-01 06:54:00
2:54 AM,34.0,21.9,61,29.70,10.0,West,5.8,-,N/A,,Overcast,280,2013-01-01 07:54:00
3:54 AM,34.0,21.9,61,29.69,10.0,NW,9.2,-,N/A,,Overcast,320,2013-01-01 08:54:00
4:52 AM,32.0,24.8,75,29.69,2.5,WNW,9.2,17.3,0.00,Snow,Light Snow,290,2013-01-01 09:52:00
4:54 AM,32.0,24.1,73,29.71,2.5,WNW,10.4,17.3,0.00,Snow,Light Snow,290,2013-01-01 09:54:00
5:00 AM,32.0,24.8,75,29.69,3.0,WNW,9.2,17.3,0.00,Snow,Light Snow,290,2013-01-01 10:00:00
5:19 AM,32.0,21.2,64,29.69,8.0,West,12.7,23.0,0.00,,Overcast,270,2013-01-01 10:19:00
5:54 AM,30.9,18.0,59,29.73,7.0,WNW,12.7,24.2,0.00,Snow,Light Snow,290,2013-01-01 10:54:00
6:54 AM,28.9,14.0,54,29.75,10.0,WNW,13.8,23.0,N/A,,Partly Cloudy,300,2013-01-01 11:54:00
7:54 AM,27.0,10.0,49,29.80,10.0,WNW,9.2,26.5,N/A,,Clear,300,2013-01-01 12:54:00
8:54 AM,28.0,10.0,47,29.81,10.0,Calm,Calm,-,N/A,,Overcast,0,2013-01-01 13:54:00
10:54 AM,25.0,9.0,51,29.84,10.0,Calm,Calm,-,0.00,,Overcast,0,2013-01-01 15:54:00
11:54 AM,25.0,8.1,49,29.83,10.0,North,8.1,16.1,N/A,,Overcast,360,2013-01-01 16:54:00
12:54 PM,24.1,8.1,51,29.82,10.0,NW,9.2,19.6,N/A,,Overcast,320,2013-01-01 17:54:00
1:54 PM,24.1,8.1,51,29.81,10.0,NW,9.2,-,N/A,,Mostly Cloudy,310,2013-01-01 18:54:00
2:54 PM,21.9,6.1,51,29.81,10.0,West,15.0,21.9,N/A,,Clear,280,2013-01-01 19:54:00
4:54 PM,19.0,3.0,50,29.87,10.0,NW,6.9,-,N/A,,Clear,310,2013-01-01 21:54:00
5:54 PM,17.1,1.9,52,29.88,10.0,Variable,5.8,-,N/A,,Clear,0,2013-01-01 22:54:00
6:54 PM,16.0,1.0,52,29.92,10.0,NW,5.8,-,N/A,,Clear,310,2013-01-01 23:54:00
7:54 PM,15.1,-0.0,51,29.94,10.0,Variable,5.8,-,N/A,,Clear,0,2013-01-02 00:54:00
8:54 PM,14.0,-0.9,52,29.94,10.0,Calm,Calm,-,N/A,,Clear,0,2013-01-02 01:54:00
9:54 PM,12.9,-2.0,51,29.94,10.0,Variable,4.6,-,N/A,,Clear,0,2013-01-02 02:54:00
10:54 PM,10.9,-2.0,56,29.96,10.0,Variable,4.6,-,N/A,,Clear,0,2013-01-02 03:54:00
11:54 PM,9.0,-0.9,64,29.94,10.0,Calm,Calm,-,N/A,,Clear,0,2013-01-02 04:54:00